Niagara Falls, NY

5:32 AM EST on November 12, 2019 (GMT -0500)
Niagara Falls International

Weather History for KIAG - September, 2019

Change the Weather History Date:

Wednesday, September 25, 2019

  Actual Average Record
Temperature  
Mean Temperature 64 °F -  
Max Temperature 75 °F 66 °F 93 °F (2017)
Min Temperature 53 °F 46 °F 34 °F (1989)
Degree Days  
Heating Degree Days 1    
Growing Degree Days 14 (Base 50)    
Moisture  
Dew Point 55 °F    
Average Humidity 73    
Maximum Humidity 96    
Minimum Humidity 46    
Precipitation  
Precipitation 0.00 in - - ()
Sea Level Pressure  
Sea Level Pressure 29.80 in    
Wind  
Wind Speed 7 mph (SSW)    
Max Wind Speed 24 mph    
Max Gust Speed 32 mph    
Visibility 9 miles    
Events      
Averages and records for this station are not official NWS values.
T = Trace of Precipitation, MM = Missing Value Source: NWS Daily Summary

Daily Weather History Graph

Daily Weather History Graph

Search for Another Location

Airport or City:

Astronomy

Sep. 25, 2019 Rise Set
Actual Time 7:06 AM EDT 7:08 PM EDT
Civil Twilight 6:37 AM EDT 7:36 PM EDT
Nautical Twilight 6:04 AM EDT 8:09 PM EDT
Astronomical Twilight 5:30 AM EDT 8:43 PM EDT
Moon 2:49 AM EDT (9/25) 5:46 PM EDT (9/25)
Length of Visible Light 12h 58m
Length of Day
12h 01m
Waning Crescent, 14% of the Moon is Illuminated
Sep 25
Waning Crescent
Sep 28
New
Oct 5
First Quarter
Oct 13
Full
Oct 21
Last Quarter

Hourly Weather History & Observations

Time (EDT) Temp. Dew Point Humidity Pressure Visibility Wind Dir Wind Speed Gust Speed Precip Events Conditions
12:53 AM 54.0 °F 52.0 °F 93% 29.84 in 8.0 mi Calm Calm - N/A   Clear
1:53 AM 54.0 °F 52.0 °F 93% 29.86 in 10.0 mi Calm Calm - N/A   Clear
2:53 AM 53.1 °F 51.1 °F 93% 29.87 in 10.0 mi Calm Calm - N/A   Partly Cloudy
3:53 AM 53.1 °F 51.1 °F 93% 29.86 in 6.0 mi Calm Calm - N/A   Clear
4:04 AM 54.0 °F 52.0 °F 93% 29.86 in 1.8 mi Calm Calm - N/A   Clear
4:13 AM 53.1 °F 52.0 °F 96% 29.86 in 4.0 mi Calm Calm - N/A   Scattered Clouds
4:53 AM 57.0 °F 55.0 °F 93% 29.86 in 10.0 mi South 4.6 mph - N/A   Clear
5:53 AM 57.9 °F 55.9 °F 93% 29.86 in 10.0 mi South 8.1 mph - N/A   Mostly Cloudy
6:53 AM 57.9 °F 55.0 °F 90% 29.85 in 10.0 mi SSW 8.1 mph - N/A   Scattered Clouds
7:53 AM 59.0 °F 55.0 °F 87% 29.85 in 10.0 mi SSW 8.1 mph - N/A   Clear
8:53 AM 63.0 °F 57.0 °F 81% 29.84 in 10.0 mi South 10.4 mph - N/A   Clear
9:53 AM 66.0 °F 59.0 °F 78% 29.83 in 10.0 mi SSW 12.7 mph - N/A   Clear
10:53 AM 70.0 °F 59.0 °F 68% 29.83 in 10.0 mi SSW 15.0 mph - N/A   Clear
11:53 AM 72.0 °F 59.0 °F 64% 29.81 in 10.0 mi SSW 15.0 mph 21.9 mph N/A   Clear
12:53 PM 73.0 °F 57.9 °F 59% 29.79 in 10.0 mi SW 15.0 mph - N/A   Clear
1:53 PM 75.0 °F 55.9 °F 51% 29.75 in 10.0 mi SSW 24.2 mph 32.2 mph N/A   Clear
2:53 PM 75.9 °F 54.0 °F 46% 29.75 in 10.0 mi SW 21.9 mph 32.2 mph N/A   Clear
3:53 PM 75.0 °F 54.0 °F 48% 29.75 in 10.0 mi WSW 19.6 mph 27.6 mph N/A   Partly Cloudy
4:53 PM 73.9 °F 55.0 °F 52% 29.72 in 10.0 mi SW 18.4 mph - N/A   Mostly Cloudy
5:53 PM 73.0 °F 55.9 °F 55% 29.72 in 10.0 mi SW 16.1 mph - N/A   Mostly Cloudy
6:53 PM 73.0 °F 55.9 °F 55% 29.71 in 10.0 mi SSW 13.8 mph - N/A   Overcast
7:53 PM 72.0 °F 57.0 °F 59% 29.72 in 10.0 mi SW 15.0 mph - N/A   Overcast
8:53 PM 72.0 °F 55.9 °F 57% 29.73 in 10.0 mi SW 16.1 mph - N/A   Overcast
9:53 PM 70.0 °F 55.9 °F 61% 29.73 in 10.0 mi SSW 11.5 mph - N/A   Overcast
10:53 PM 69.1 °F 57.0 °F 65% 29.73 in 10.0 mi SW 9.2 mph - N/A   Mostly Cloudy
11:53 PM 69.1 °F 57.9 °F 68% 29.73 in 10.0 mi SW 11.5 mph - N/A   Overcast